This is the latest recevied weather packets stored in our database for station/object SR9NLI. If no packets are shown the sender has not sent any weather packets the latest 1 day(s).
| Time | Temp. | Humidity | Pressure | Rain* | Wind** | Luminosity | Snow |
|---|---|---|---|---|---|---|---|
| 1778012152 | 17.78° C | 100% | 949.9 hPa | - | 1.34 m/s, 177° | - | - |
| 1778012030 | 17.78° C | 100% | 949.9 hPa | - | 1.34 m/s, 178° | - | - |
| 1778011906 | 18.33° C | 100% | 949.9 hPa | - | 1.79 m/s, 177° | - | - |
| 1778011846 | 18.33° C | 100% | 949.9 hPa | - | 1.79 m/s, 179° | - | - |
| 1778011783 | 18.33° C | 100% | 949.9 hPa | - | 2.68 m/s, 174° | - | - |
| 1778011661 | 18.33° C | 100% | 949.9 hPa | - | 2.68 m/s, 173° | - | - |
| 1778011538 | 18.33° C | 100% | 949.9 hPa | - | 1.79 m/s, 171° | - | - |
| 1778011478 | 18.33° C | 100% | 949.9 hPa | - | 1.79 m/s, 175° | - | - |
| 1778011416 | 18.33° C | 100% | 949.9 hPa | - | 1.79 m/s, 173° | - | - |
| 1778011293 | 18.33° C | 100% | 949.9 hPa | - | 2.24 m/s, 170° | - | - |
| 1778011171 | 18.33° C | 100% | 950 hPa | - | 2.24 m/s, 171° | - | - |
| 1778011110 | 18.33° C | 100% | 949.9 hPa | - | 1.79 m/s, 182° | - | - |
| 1778011047 | 18.33° C | 100% | 949.9 hPa | - | 1.34 m/s, 183° | - | - |
| 1778010925 | 18.33° C | 100% | 949.8 hPa | - | 1.79 m/s, 173° | - | - |
| 1778010801 | 18.33° C | 100% | 949.8 hPa | - | 1.79 m/s, 173° | - | - |
| 1778010740 | 18.33° C | 100% | 950 hPa | - | 1.79 m/s, 176° | - | - |
| 1778010677 | 17.78° C | 100% | 950 hPa | - | 0.89 m/s, 184° | - | - |
| 1778010554 | 17.78° C | 100% | 949.9 hPa | - | 0.89 m/s, 187° | - | - |
| 1778010432 | 17.78° C | 100% | 949.9 hPa | - | 0.45 m/s, 196° | - | - |
| 1778010371 | 17.78° C | 100% | 950 hPa | - | 0.45 m/s, 0° | - | - |
| 1778010308 | 17.78° C | 100% | 950 hPa | - | 0.45 m/s, 0° | - | - |
| 1778010185 | 18.33° C | 100% | 949.9 hPa | - | 0.89 m/s, 204° | - | - |
| 1778010062 | 18.33° C | 100% | 950 hPa | - | 0.89 m/s, 200° | - | - |
| 1778010002 | 18.33° C | 100% | 949.9 hPa | - | 0.89 m/s, 194° | - | - |
| 1778009939 | 18.33° C | 100% | 950 hPa | - | 0.89 m/s, 195° | - | - |
* Rain since midnight (hover to see other rain measurements)
** Current wind speed in m/s (hover to see current wind gust speed)